User: anonymous   Login
Location: Unspecified
(0.0000°N, 0.0000°E)
Time: 23:48:41
(UTC+00:00)
Language:

FALCON 9 R/B - Orbit

View from above orbital plane
View from above orbital plane
View from above satellite
View from above satellite

Ground track
Ground track

The orbit data is extracted from the following two-line orbital elements,

1 37253U 10066K   16273.51459108  .00005623  00000-0  50536-3 0  9993
2 37253  34.5300  19.3734 4294008 358.2025   0.6647  6.87670122142612
Epoch (UTC): 29 September 2016 12:21:00
Eccentricity: 0.4294008
inclination: 34.5300°
perigee height: 287 km
apogee height: 10318 km
right ascension of ascending node: 19.3734°
argument of perigee: 358.2025°
revolutions per day: 6.87670122
mean anomaly at epoch: 0.6647°
orbit number at epoch: 14261

The dashed part of the orbit path shows where the satellite is in the earth's shadow,  

DLR